Location: Linz
(48.3300°N, 14.3000°E)
Time: 00:15:33
(UTC+01:00)

N. Korean satellite - Pass Details

Date: 14 November 2017
Orbit: 460 x 515 km, 97.2° (Epoch: 17 November)

Event Time Altitude Azimuth Distance (km) Brightness Sun altitude
Rises 16:57:23 0° 130° (SE) 2,486 9.9 -5.7°
Reaches altitude 10° 16:59:47 10° 113° (ESE) 1,621 8.8 -6.1°
Maximum altitude 17:02:21 20° 65° (ENE) 1,163 7.9 -6.5°
Drops below altitude 10° 17:04:56 10° 18° (NNE) 1,648 8.9 -6.9°
Sets 17:07:24 0° 1° (N) 2,542 10.0 -7.3°
